This is the latest recevied weather packets stored in our database for station/object LU8AQL-WX. If no packets are shown the sender has not sent any weather packets the latest 10 day(s).
| Time | Temp. | Humidity | Pressure | Rain* | Wind** | Luminosity | Snow |
|---|---|---|---|---|---|---|---|
| 1787510604 | 11.67° C | 56% | 1025 hPa | 0 mm | - | - | - |
| 1787510003 | 11.67° C | 56% | 1025 hPa | 0 mm | - | - | - |
| 1787509402 | 11.67° C | 56% | 1024 hPa | 0 mm | - | - | - |
| 1787508801 | 11.67° C | 55% | 1026 hPa | 0 mm | - | - | - |
| 1787508200 | 12.22° C | 55% | 1026 hPa | 0 mm | - | - | - |
| 1787507599 | 12.22° C | 55% | 1026 hPa | 0 mm | - | - | - |
| 1787506998 | 11.67° C | 54% | 1026 hPa | 0 mm | - | - | - |
| 1787506397 | 11.67° C | 55% | 1026 hPa | 0 mm | - | - | - |
| 1787505796 | 11.11° C | 54% | 1025 hPa | 0 mm | - | - | - |
| 1787505195 | 11.11° C | 55% | 1025 hPa | 0 mm | - | - | - |
| 1787504594 | 11.67° C | 56% | 1026 hPa | 0 mm | - | - | - |
| 1787503993 | 11.67° C | 56% | 1026 hPa | 0 mm | - | - | - |
| 1787503393 | 11.67° C | 57% | 1026 hPa | 0 mm | - | - | - |
| 1787502792 | 11.67° C | 57% | 1026 hPa | 0 mm | - | - | - |
| 1787502190 | 11.11° C | 54% | 1026 hPa | 0 mm | - | - | - |
| 1787501590 | 11.11° C | 55% | 1026 hPa | 0 mm | - | - | - |
| 1787500989 | 11.11° C | 59% | 1026 hPa | 0 mm | - | - | - |
| 1787500387 | 11.11° C | 59% | 1027 hPa | 0 mm | - | - | - |
| 1787499786 | 11.11° C | 60% | 1027 hPa | 0 mm | - | - | - |
| 1787499185 | 10.56° C | 57% | 1027 hPa | 0 mm | - | - | - |
| 1787498585 | 10.56° C | 60% | 1026 hPa | 0 mm | - | - | - |
| 1787497983 | 10.56° C | 60% | 1026 hPa | 0 mm | - | - | - |
| 1787497382 | 10.56° C | 62% | 1026 hPa | 0 mm | - | - | - |
| 1787496782 | 10° C | 63% | 1027 hPa | 0 mm | - | - | - |
| 1787496181 | 10° C | 64% | 1027 hPa | 0 mm | - | - | - |
* Rain latest hour (hover to see other rain measurements)
** Current wind speed in m/s (hover to see current wind gust speed)